Tunica, MS

9:25 PM CST on February 25, 2017 (GMT -0600)
Tunica

Weather History for KUTA - December, 2013

Change the Weather History Date:

Monday, December 23, 2013

  Actual Average (KAWM) Record (KAWM)
Temperature  
Mean Temperature 32 °F -  
Max Temperature 35 °F 50 °F 71 °F (1964)
Min Temperature 30 °F 30 °F -5 °F (1989)
Degree Days  
Heating Degree Days 32    
Moisture  
Dew Point 29 °F    
Average Humidity 83    
Maximum Humidity 93    
Minimum Humidity 75    
Precipitation  
Precipitation 0.00 in - - ()
Sea Level Pressure  
Sea Level Pressure 30.46 in    
Wind  
Wind Speed 11 mph (NNW)    
Max Wind Speed 18 mph    
Max Gust Speed 24 mph    
Visibility 10 miles    
Events      
Averages and records for this station are not official NWS values.
T = Trace of Precipitation, MM = Missing Value Source: NWS Daily Summary

Daily Weather History Graph

Daily Weather History Graph

Search for Another Location

Airport or City:

Trip Planner

Search our weather history database for the weather conditions in past years. The results will help you decide how hot, cold, wet, or windy it might be!

Date:

Astronomy

Dec. 23, 2013 Rise Set
Actual Time 7:05 AM CST 4:55 PM CST
Civil Twilight 6:37 AM CST 5:23 PM CST
Nautical Twilight 6:06 AM CST 5:55 PM CST
Astronomical Twilight 5:35 AM CST 6:26 PM CST
Moon 10:51 PM CST (12/23) 10:44 AM CST (12/23)
Length of Visible Light 10h 46m
Length of Day
9h 49m
Waning Gibbous, 68% of the Moon is Illuminated
Dec 23
Waning Gibbous
Dec 25
Last Quarter
Jan 1
New
Jan 7
First Quarter
Jan 15
Full

Hourly Weather History & Observations

Time (CST) Temp. Windchill Dew Point Humidity Pressure Visibility Wind Dir Wind Speed Gust Speed Precip Events Conditions
12:15 AM 35.6 °F 27.1 °F 32.0 °F 87% 30.29 in 10.0 mi NW 12.7 mph - N/A   Overcast
12:35 AM 35.6 °F 27.1 °F 32.0 °F 87% 30.30 in 10.0 mi NW 12.7 mph - N/A   Mostly Cloudy
12:55 AM 35.6 °F 27.5 °F 32.0 °F 87% 30.31 in 10.0 mi NW 11.5 mph - N/A   Mostly Cloudy
1:15 AM 35.6 °F 26.2 °F 30.2 °F 81% 30.31 in 10.0 mi NW 15.0 mph 18.4 mph N/A   Overcast
1:35 AM 35.6 °F 25.9 °F 30.2 °F 81% 30.32 in 10.0 mi NNW 16.1 mph 19.6 mph N/A   Mostly Cloudy
1:55 AM 35.6 °F 25.5 °F 30.2 °F 81% 30.32 in 10.0 mi NW 17.3 mph 23.0 mph N/A   Overcast
2:15 AM 35.6 °F 27.1 °F 30.2 °F 81% 30.33 in 10.0 mi NNW 12.7 mph - N/A   Overcast
2:35 AM 35.6 °F 25.9 °F 30.2 °F 81% 30.33 in 10.0 mi North 16.1 mph 24.2 mph N/A   Overcast
2:55 AM 35.6 °F 25.9 °F 30.2 °F 81% 30.34 in 10.0 mi NNW 16.1 mph - N/A   Overcast
3:15 AM 35.6 °F 26.2 °F 30.2 °F 81% 30.34 in 10.0 mi NNW 15.0 mph 18.4 mph N/A   Overcast
3:35 AM 35.6 °F 26.2 °F 30.2 °F 81% 30.34 in 10.0 mi North 15.0 mph 20.7 mph N/A   Overcast
3:55 AM 35.6 °F 27.1 °F 30.2 °F 81% 30.34 in 10.0 mi North 12.7 mph - N/A   Overcast
4:15 AM 35.6 °F 26.6 °F 30.2 °F 81% 30.34 in 10.0 mi North 13.8 mph - N/A   Overcast
4:35 AM 35.6 °F 25.5 °F 30.2 °F 81% 30.35 in 10.0 mi NNW 17.3 mph 23.0 mph N/A   Overcast
4:55 AM 33.8 °F 22.8 °F 28.4 °F 81% 30.35 in 10.0 mi NNW 18.4 mph - N/A   Mostly Cloudy
5:15 AM 33.8 °F 23.9 °F 28.4 °F 81% 30.36 in 10.0 mi North 15.0 mph - N/A   Mostly Cloudy
5:35 AM 33.8 °F 23.9 °F 30.2 °F 87% 30.37 in 10.0 mi NNW 15.0 mph 19.6 mph N/A   Overcast
5:55 AM 33.8 °F 23.5 °F 30.2 °F 87% 30.38 in 10.0 mi NNW 16.1 mph - N/A   Mostly Cloudy
6:15 AM 33.8 °F 23.2 °F 28.4 °F 81% 30.39 in 10.0 mi North 17.3 mph - N/A   Mostly Cloudy
6:35 AM 33.8 °F 23.9 °F 28.4 °F 81% 30.40 in 10.0 mi North 15.0 mph 18.4 mph N/A   Overcast
6:55 AM 33.8 °F 25.3 °F 28.4 °F 81% 30.41 in 10.0 mi North 11.5 mph - N/A   Overcast
7:15 AM 32.0 °F 24.2 °F 28.4 °F 87% 30.42 in 10.0 mi North 9.2 mph - N/A   Scattered Clouds
7:35 AM 33.8 °F 24.3 °F 28.4 °F 81% 30.43 in 10.0 mi North 13.8 mph 19.6 mph N/A   Mostly Cloudy
7:55 AM 33.8 °F 24.8 °F 28.4 °F 81% 30.44 in 10.0 mi North 12.7 mph - N/A   Mostly Cloudy
8:15 AM 33.8 °F 25.8 °F 28.4 °F 81% 30.45 in 10.0 mi North 10.4 mph - N/A   Mostly Cloudy
8:35 AM 33.8 °F 23.5 °F 28.4 °F 81% 30.46 in 10.0 mi North 16.1 mph - N/A   Overcast
8:55 AM 33.8 °F 25.8 °F 28.4 °F 81% 30.47 in 10.0 mi North 10.4 mph 19.6 mph N/A   Mostly Cloudy
9:15 AM 33.8 °F 24.3 °F 28.4 °F 81% 30.49 in 10.0 mi North 13.8 mph - N/A   Mostly Cloudy
9:35 AM 33.8 °F 24.8 °F 28.4 °F 81% 30.49 in 10.0 mi North 12.7 mph - N/A   Mostly Cloudy
9:55 AM 33.8 °F 23.9 °F 28.4 °F 81% 30.51 in 10.0 mi North 15.0 mph - N/A   Overcast
10:15 AM 33.8 °F 23.9 °F 28.4 °F 81% 30.51 in 10.0 mi NNW 15.0 mph 19.6 mph N/A   Mostly Cloudy
10:35 AM 33.8 °F 23.9 °F 28.4 °F 81% 30.52 in 10.0 mi North 15.0 mph - N/A   Overcast
10:55 AM 33.8 °F 24.8 °F 28.4 °F 81% 30.52 in 10.0 mi North 12.7 mph - N/A   Overcast
11:15 AM 33.8 °F 24.8 °F 28.4 °F 81% 30.51 in 10.0 mi North 12.7 mph - N/A   Overcast
11:35 AM 33.8 °F 25.3 °F 26.6 °F 75% 30.51 in 10.0 mi North 11.5 mph 18.4 mph N/A   Overcast
11:55 AM 35.6 °F 28.6 °F 28.4 °F 75% 30.51 in 10.0 mi NNE 9.2 mph - N/A   Overcast
12:15 PM 33.8 °F 25.8 °F 28.4 °F 81% 30.50 in 10.0 mi North 10.4 mph - N/A   Overcast
12:35 PM 33.8 °F 25.3 °F 28.4 °F 81% 30.49 in 10.0 mi North 11.5 mph - N/A   Overcast
12:55 PM 33.8 °F 24.8 °F 28.4 °F 81% 30.49 in 10.0 mi North 12.7 mph - N/A   Mostly Cloudy
1:15 PM 35.6 °F 28.6 °F 28.4 °F 75% 30.48 in 10.0 mi North 9.2 mph - N/A   Mostly Cloudy
1:35 PM 35.6 °F 28.0 °F 28.4 °F 75% 30.47 in 10.0 mi North 10.4 mph 18.4 mph N/A   Mostly Cloudy
1:55 PM 35.6 °F 29.9 °F 28.4 °F 75% 30.47 in 10.0 mi North 6.9 mph - N/A   Mostly Cloudy
2:15 PM 35.6 °F 29.2 °F 28.4 °F 75% 30.47 in 10.0 mi NNE 8.1 mph - N/A   Mostly Cloudy
2:35 PM 35.6 °F 29.2 °F 28.4 °F 75% 30.47 in 10.0 mi North 8.1 mph - N/A   Mostly Cloudy
2:55 PM 35.6 °F 28.6 °F 28.4 °F 75% 30.47 in 10.0 mi North 9.2 mph - N/A   Mostly Cloudy
3:15 PM 33.8 °F 25.8 °F 28.4 °F 81% 30.48 in 10.0 mi North 10.4 mph - N/A   Scattered Clouds
3:35 PM 35.6 °F 27.5 °F 28.4 °F 75% 30.48 in 10.0 mi North 11.5 mph - N/A   Clear
3:55 PM 33.8 °F 25.3 °F 28.4 °F 81% 30.49 in 10.0 mi NNW 11.5 mph - N/A   Clear
4:15 PM 35.6 °F 28.0 °F 28.4 °F 75% 30.49 in 10.0 mi NNW 10.4 mph - N/A   Scattered Clouds
4:35 PM 33.8 °F 25.8 °F 28.4 °F 81% 30.50 in 10.0 mi NNW 10.4 mph - N/A   Scattered Clouds
4:55 PM 33.8 °F 27.0 °F 28.4 °F 81% 30.49 in 10.0 mi North 8.1 mph - N/A   Scattered Clouds
5:15 PM 33.8 °F 27.7 °F 28.4 °F 81% 30.50 in 10.0 mi North 6.9 mph - N/A   Clear
5:35 PM 32.0 °F 27.5 °F 28.4 °F 87% 30.50 in 10.0 mi North 4.6 mph - N/A   Clear
5:55 PM 32.0 °F 27.5 °F 28.4 °F 87% 30.51 in 10.0 mi North 4.6 mph - N/A   Clear
6:15 PM 32.0 °F 27.5 °F 28.4 °F 87% 30.51 in 10.0 mi North 4.6 mph - N/A   Clear
6:35 PM 32.0 °F 27.5 °F 28.4 °F 87% 30.51 in 10.0 mi North 4.6 mph - N/A   Clear
6:55 PM 32.0 °F 28.7 °F 28.4 °F 87% 30.52 in 10.0 mi NNW 3.5 mph - N/A   Clear
7:15 PM 32.0 °F 28.7 °F 28.4 °F 87% 30.52 in 10.0 mi North 3.5 mph - N/A   Clear
7:35 PM 32.0 °F - 28.4 °F 87% 30.53 in 10.0 mi Calm Calm - N/A   Clear
7:55 PM 32.0 °F - 28.4 °F 87% 30.53 in 10.0 mi Calm Calm - N/A   Clear
8:15 PM 32.0 °F - 28.4 °F 87% 30.53 in 10.0 mi Calm Calm - N/A   Clear
8:35 PM 32.0 °F - 30.2 °F 93% 30.53 in 10.0 mi Calm Calm - N/A   Clear
8:55 PM 32.0 °F - 30.2 °F 93% 30.54 in 10.0 mi Calm Calm - N/A   Clear
9:15 PM 32.0 °F - 30.2 °F 93% 30.54 in 10.0 mi Calm Calm - N/A   Clear
9:35 PM 32.0 °F - 30.2 °F 93% 30.54 in 10.0 mi Calm Calm - N/A   Clear
9:55 PM 32.0 °F - 30.2 °F 93% 30.54 in 10.0 mi Calm Calm - N/A   Clear
10:15 PM 32.0 °F - 28.4 °F 87% 30.54 in 10.0 mi Calm Calm - N/A   Clear
10:35 PM 32.0 °F - 28.4 °F 87% 30.54 in 10.0 mi Calm Calm - N/A   Clear
10:55 PM 32.0 °F - 30.2 °F 93% 30.54 in 10.0 mi Calm Calm - N/A   Clear
11:15 PM 32.0 °F - 28.4 °F 87% 30.54 in 10.0 mi Calm Calm - N/A   Clear
11:35 PM 30.2 °F - 28.4 °F 93% 30.54 in 10.0 mi Calm Calm - N/A   Clear
11:55 PM 30.2 °F 26.7 °F 28.4 °F 93% 30.54 in 10.0 mi WNW 3.5 mph - N/A   Clear